Location: Hamburg
(53.5500°N, 10.0000°E)
Time: 17:02:33
(UTC+02:00)

A-11 Canister half - All Passes

Search period start: 30 July 2016 00:00
Search period end: 09 August 2016 00:00
Orbit: 1525 x 1684 km, 47.3° (Epoch: 30 July)

Date Brightness Start Highest point End Pass type
(mag) Time Alt. Az. Time Alt. Az. Time Alt. Az.
30 Jul - 03:58:55 10° SSW 04:07:19 31° SE 04:15:36 10° E visible
30 Jul - 06:01:18 10° WSW 06:11:03 55° SSE 06:20:34 10° E daylight
30 Jul - 08:05:37 10° W 08:15:25 60° S 08:24:55 10° ESE daylight
30 Jul - 10:10:28 10° W 10:19:24 40° SSW 10:28:02 10° SSE daylight
30 Jul - 12:17:15 10° W 12:22:10 15° SW 12:27:01 10° SSW daylight
31 Jul - 03:37:30 10° SSW 03:45:48 30° SE 03:54:00 10° E visible
31 Jul - 05:39:45 10° SW 05:49:29 54° SSE 05:59:00 10° E daylight
31 Jul - 07:44:00 10° W 07:53:51 61° S 08:03:23 10° ESE daylight
31 Jul - 09:48:51 10° W 09:57:52 41° SSW 10:06:37 10° SE daylight
31 Jul - 11:55:24 10° W 12:00:42 16° SW 12:05:56 10° SSW daylight
01 Aug - 03:16:07 10° SSW 03:24:17 29° SE 03:32:21 10° E visible
01 Aug - 05:18:11 10° SW 05:27:55 54° SSE 05:37:26 10° E daylight
01 Aug - 07:22:24 10° W 07:32:16 61° S 07:41:50 10° ESE daylight
01 Aug - 09:27:13 10° W 09:36:20 42° SSW 09:45:10 10° SE daylight
01 Aug - 11:33:34 10° W 11:39:14 17° SW 11:44:49 10° SSW daylight
02 Aug - 02:54:44 10° S 03:02:45 28° SE 03:10:43 10° E visible
02 Aug - 04:56:39 10° SW 05:06:20 53° SSE 05:15:52 10° E visible
02 Aug - 07:00:49 10° W 07:10:42 61° S 07:20:18 10° ESE daylight
02 Aug - 09:05:36 10° W 09:14:48 43° SSW 09:23:43 10° SE daylight
02 Aug - 11:11:47 10° W 11:17:46 18° SW 11:23:39 10° SSW daylight
03 Aug - 02:33:22 10° S 02:41:15 27° SE 02:49:04 10° E visible
03 Aug - 04:35:06 10° SW 04:44:46 52° SSE 04:54:17 10° E visible
03 Aug - 06:39:13 10° W 06:49:07 62° S 06:58:45 10° ESE daylight
03 Aug - 08:43:59 10° W 08:53:16 45° SSW 09:02:15 10° SE daylight
03 Aug - 10:50:01 10° W 10:56:17 19° SW 11:02:28 10° S daylight
04 Aug - 02:12:00 10° S 02:19:44 26° SE 02:27:25 10° E visible
04 Aug - 04:13:33 10° SW 04:23:12 51° SSE 04:32:43 10° E visible
04 Aug - 06:17:37 10° W 06:27:32 62° S 06:37:12 10° ESE daylight
04 Aug - 08:22:22 10° W 08:31:43 46° SSW 08:40:47 10° SE daylight
04 Aug - 10:28:15 10° W 10:34:49 20° SW 10:41:15 10° S daylight
05 Aug - 01:50:40 10° S 01:58:14 25° SE 02:05:46 10° E visible
05 Aug - 03:52:01 10° SW 04:01:39 50° SSE 04:11:08 10° E visible
05 Aug - 05:56:02 10° WSW 06:05:57 62° S 06:15:39 10° ESE daylight
05 Aug - 08:00:46 10° W 08:10:10 47° SSW 08:19:19 10° SE daylight
05 Aug - 10:06:31 10° W 10:13:20 21° SW 10:20:01 10° S daylight
06 Aug - 01:29:20 10° S 01:36:43 24° SE 01:44:05 10° E visible
06 Aug - 03:30:30 10° SW 03:40:05 49° SSE 03:49:33 10° E visible
06 Aug - 05:34:26 10° WSW 05:44:22 62° S 05:54:06 10° ESE daylight
06 Aug - 07:39:09 10° W 07:48:37 48° SSW 07:57:50 10° SE daylight
06 Aug - 09:44:48 10° W 09:51:50 22° SW 09:58:46 10° S daylight
07 Aug - 01:08:02 10° S 01:15:13 23° SE 01:22:23 10° E visible
07 Aug - 03:08:59 10° SW 03:18:31 48° SSE 03:27:58 10° E visible
07 Aug - 05:12:50 10° WSW 05:22:48 62° S 05:32:32 10° ESE daylight
07 Aug - 07:17:32 10° W 07:27:04 49° SSW 07:36:21 10° SE daylight
07 Aug - 09:23:05 10° W 09:30:22 24° SW 09:37:29 10° S daylight
08 Aug - 00:46:44 10° S 00:53:43 22° SE 01:00:41 10° E visible
08 Aug - 02:47:28 10° SW 02:56:57 47° SSE 03:06:23 10° E visible
08 Aug - 04:51:15 10° WSW 05:01:12 62° S 05:10:59 10° ESE visible
08 Aug - 06:55:56 10° W 07:05:31 50° SSW 07:14:51 10° SE daylight
08 Aug - 09:01:24 10° W 09:08:52 25° SW 09:16:11 10° S daylight
